User: anonymous   Login
Location: Unspecified
(0.0000°N, 0.0000°E)
Time: 05:23:09
(UTC+00:00)
Language:

CORIOLIS - Orbit

View from above orbital plane
View from above orbital plane
View from above satellite
View from above satellite

Ground track
Ground track

The orbit data is extracted from the following two-line orbital elements,

1 27640U 03001A   17177.96377082 -.00000013 +00000-0 +14813-4 0  9994
2 27640 098.7423 188.0562 0012899 280.4434 134.0712 14.18946145749357
Epoch (UTC): 26 June 2017 23:07:49
Eccentricity: 0.0012899
inclination: 98.7423°
perigee height: 819 km
apogee height: 838 km
right ascension of ascending node: 188.0562°
argument of perigee: 280.4434°
revolutions per day: 14.18946145
mean anomaly at epoch: 134.0712°
orbit number at epoch: 74935

The dashed part of the orbit path shows where the satellite is in the earth's shadow,  

DLR